Regional Weather Roundup
Issued by NWS Cleveland, OH

Home | Current Version | Previous Version | Graphics & Text | Print | Product List | Glossary On
Versions: 1 2 3 4 5 6 7 8 9 10 11 12 13 14 15 16 17 18 19 20 21 22 23 24 25 26 27 28 29 30 31 32 33 34 35 36 37 38 39 40 41 42 43 44 45 46 47 48 49 50
000
ASUS41 KCLE 291510
RWRCLE
OHIO REGIONAL WEATHER ROUNDUP
NATIONAL WEATHER SERVICE CLEVELAND, OH
1100 AM EDT FRI APR 29 2016

NOTE: "FAIR" INDICATES FEW OR NO CLOUDS BELOW 12,000 FEET WITH NO
SIGNIFICANT WEATHER AND/OR OBSTRUCTIONS TO VISIBILITY.

OHZ001>008-015>018-024>027-034-035-043-044-291600-
   NORTHWEST OHIO

CITY           SKY/WX    TMP DP  RH WIND       PRES   REMARKS
DEFIANCE       CLOUDY    49  38  65 NW5       30.05R
FINDLAY        CLOUDY    50  40  68 VRB3      30.01F
TOLEDO EXPRESS CLOUDY    50  35  56 NE3       30.03F
TOLEDO EXEC    CLOUDY    48  37  65 NE8       30.04F
LIMA           CLOUDY    48  44  86 CALM      30.03R
$$

OHZ009>014-019>023-028>033-038-089-291600-
   NORTHEAST OHIO

CITY           SKY/WX    TMP DP  RH WIND       PRES   REMARKS
CLE-HOPKINS    CLOUDY    48  46  93 NW8       30.02S FOG
CLE-LAKEFRONT  LGT RAIN  48  46  93 N7        30.00R
CUY CO. ARPT   CLOUDY    50  48  93 N8        30.00S FOG
LORAIN-ELYRIA  CLOUDY    46  43  89 N8        30.01S
ASHTABULA      CLOUDY    48  44  86 CALM      30.00F
AKRON-CANTON   CLOUDY    50  47  89 SW7       29.98F FOG
WOOSTER        CLOUDY    49  48  97 SW6       30.00S FOG
MANSFIELD      CLOUDY    47  47 100 W6        30.01R FOG
YOUNGSTOWN     CLOUDY    47  45  93 S3        29.98F
$$

OHZ042-051>053-060>062-070>072-077>081-291600-
  SOUTHWEST OHIO

CITY           SKY/WX    TMP DP  RH WIND       PRES   REMARKS
CINC-COVINGTON PTSUNNY   61  51  70 W6        30.03R
CINC-LUNKEN    PTSUNNY   63  52  67 VRB3      30.03R
HAMILTON       PTSUNNY   62  53  72 W6        30.03S
DAYTON         CLOUDY    54  49  83 N5        30.04R
WRIGHT-PAT AFB CLOUDY    53  52  95 N5        30.03R
DAYTON GENERAL CLOUDY    55  51  86 N7        30.02R FOG
WILMINGTON     CLOUDY    57  51  80 NW9       30.01R
$$

OHZ036-037-039>041-045>050-054>059-063>069-073>076-082>088-291600-
  CENTRAL AND SOUTHEAST OHIO

CITY           SKY/WX    TMP DP  RH WIND       PRES   REMARKS
COLUMBUS       CLOUDY    50  47  89 W8        30.02R
OSU AIRPORT    CLOUDY    50  48  93 NW9       30.03R
BOLTON FIELD   CLOUDY    50  48  93 NW7       30.04R FOG
RICKENBACK AFB CLOUDY    51  49  94 NW9       30.03R FOG
NEWARK         CLOUDY    53  48  83 NW7       30.01S
MARION         CLOUDY    47  45  93 NW8       30.03R FOG
LANCASTER      CLOUDY    53  50  89 NW7       30.02S FOG
ZANESVILLE     CLOUDY    57  52  83 CALM      30.00S HAZE
NEW PHILLY     CLOUDY    51  47  86 CALM      30.00S
$$




USA.gov is the U.S. government's official web portal to all federal, state and local government web resources and services.